CW2969 Weather Reports


time (UTC)temp
F
wind
direction
speed
knots
gust
knots
rain 1hr
in
rain 24hr
in
rain mn
in
humidity
%
barometer
mb
20260901123528 79 270 0.0 0.0 0.00 0.00 0.00 81 1015.2
20260901123028 79 270 0.0 0.0 0.00 0.00 0.00 81 1015.2
20260901122528 79 276 0.0 0.0 0.00 0.00 0.00 81 1015.1
20260901122028 79 276 0.0 0.0 0.00 0.00 0.00 81 1015.1
20260901121527 79 285 0.0 0.0 0.00 0.00 0.00 81 1015.0
20260901121027 79 267 0.0 0.0 0.00 0.00 0.00 81 1015.0
20260901120027 79 136 0.0 0.0 0.00 0.00 0.00 80 1015.0
20260901115527 79 136 0.0 0.0 0.00 0.00 0.00 80 1015.0
20260901114527 79 136 0.0 0.0 0.00 0.00 0.00 80 1014.9
20260901113527 79 136 0.0 0.0 0.00 0.00 0.00 80 1014.9
20260901113028 80 136 0.0 0.9 0.00 0.00 0.00 80 1014.9
20260901112527 80 136 0.9 0.9 0.00 0.00 0.00 80 1014.9
20260901112027 80 136 0.0 0.0 0.00 0.00 0.00 80 1014.8
20260901111027 80 188 0.0 0.9 0.00 0.00 0.00 80 1014.8
20260901110527 80 188 0.0 0.9 0.00 0.00 0.00 80 1014.7
20260901110027 80 292 0.0 0.0 0.00 0.00 0.00 80 1014.8
20260901105527 80 292 0.0 1.7 0.00 0.00 0.00 80 1014.8
20260901105027 80 262 0.0 1.7 0.00 0.00 0.00 80 1014.8
20260901104527 80 287 0.9 0.9 0.00 0.00 0.00 80 1014.8
20260901103527 80 123 0.0 1.7 0.00 0.00 0.00 80 1014.7
20260901103027 80 254 0.9 1.7 0.00 0.00 0.00 80 1014.6
20260901102527 80 196 0.0 2.6 0.00 0.00 0.00 79 1014.5
20260901101027 80 266 0.0 0.9 0.00 0.00 0.00 79 1014.6
20260901100527 80 284 0.0 0.9 0.00 0.00 0.00 79 1014.7
20260901100027 80 89 0.0 0.9 0.00 0.00 0.00 79 1014.7
20260901095527 80 202 0.0 2.6 0.00 0.00 0.00 79 1014.7
20260901095026 80 198 0.0 2.6 0.00 0.00 0.00 79 1014.8
20260901094026 80 202 1.7 2.6 0.00 0.00 0.00 78 1014.9
20260901093526 80 178 0.0 0.0 0.00 0.00 0.00 78 1014.8
20260901093026 80 178 0.0 0.0 0.00 0.00 0.00 78 1015.0
20260901092026 81 206 0.0 0.9 0.00 0.00 0.00 77 1015.1
20260901091526 81 209 0.0 0.9 0.00 0.00 0.00 77 1015.2
20260901091026 81 208 0.0 0.9 0.00 0.00 0.00 77 1015.2
20260901090526 81 151 0.0 0.9 0.00 0.00 0.00 77 1015.1
20260901090026 81 136 0.0 0.9 0.00 0.00 0.00 76 1015.2
20260901085526 81 136 0.0 1.7 0.00 0.00 0.00 77 1015.1
20260901085026 81 137 0.0 2.6 0.00 0.00 0.00 77 1015.0
20260901084526 81 196 0.0 2.6 0.00 0.00 0.00 76 1015.0
20260901084026 81 134 0.9 2.6 0.00 0.00 0.00 76 1014.9
20260901083526 81 203 0.0 2.6 0.00 0.00 0.00 76 1014.9
20260901083026 81 221 0.0 0.0 0.00 0.00 0.00 75 1014.8
20260901082526 81 134 0.0 0.0 0.00 0.00 0.00 75 1014.9
20260901082025 82 197 0.0 0.0 0.00 0.00 0.00 75 1014.8
20260901081526 82 164 0.0 1.7 0.00 0.00 0.00 75 1014.8
20260901081026 82 192 0.0 1.7 0.00 0.00 0.00 74 1014.9
20260901080025 82 223 0.0 2.6 0.00 0.00 0.00 74 1015.0
20260901075525 82 150 2.6 2.6 0.00 0.00 0.00 74 1015.0
20260901075025 82 207 0.0 0.9 0.00 0.00 0.00 73 1014.9
20260901074525 82 123 0.0 1.7 0.00 0.00 0.00 73 1014.9
20260901074025 82 128 0.9 1.7 0.00 0.00 0.00 73 1014.9
20260901073525 82 180 0.0 0.9 0.00 0.00 0.00 72 1015.0
20260901073025 82 123 0.0 0.0 0.00 0.00 0.00 72 1014.9
20260901072525 82 194 0.0 2.6 0.00 0.00 0.00 72 1015.0
20260901072025 83 133 2.6 2.6 0.00 0.00 0.00 71 1015.0
20260901071525 83 161 0.0 0.0 0.00 0.00 0.00 71 1015.0
20260901071025 83 136 0.0 0.0 0.00 0.00 0.00 70 1014.9
20260901070525 83 136 0.0 2.6 0.00 0.00 0.00 70 1014.9
20260901070025 83 136 0.0 2.6 0.00 0.00 0.00 70 1015.0
20260901065525 83 136 0.0 2.6 0.00 0.00 0.00 70 1014.9
20260901065025 83 180 0.0 1.7 0.00 0.00 0.00 70 1014.9
20260901064525 83 194 0.0 2.6 0.00 0.00 0.00 70 1014.7
20260901064024 83 218 1.7 2.6 0.00 0.00 0.00 69 1014.7
20260901063524 84 254 0.0 1.7 0.00 0.00 0.00 69 1014.8
20260901063025 84 204 0.0 2.6 0.00 0.00 0.00 68 1014.7
20260901062524 84 101 2.6 2.6 0.00 0.00 0.00 68 1014.6
20260901062024 84 148 0.9 2.6 0.00 0.00 0.00 68 1014.6
20260901061524 84 153 0.9 5.2 0.00 0.00 0.00 67 1014.5
20260901061024 84 205 1.7 5.2 0.00 0.00 0.00 67 1014.6
20260901060524 85 236 0.0 3.5 0.00 0.00 0.00 67 1014.6
20260901055524 85 120 0.0 4.3 0.00 0.00 0.00 66 1014.6
20260901054524 85 161 0.9 5.2 0.00 0.00 0.00 66 1014.5
20260901054024 85 132 0.9 1.7 0.00 0.00 0.00 65 1014.5
20260901053524 86 198 0.0 2.6 0.00 0.00 0.00 65 1014.5
20260901053024 86 128 0.9 2.6 0.00 0.00 0.00 64 1014.4
20260901052524 86 207 1.7 2.6 0.00 0.00 0.00 64 1014.4
20260901052024 86 196 0.9 3.5 0.00 0.00 0.00 64 1014.3
20260901051524 86 198 3.5 5.2 0.00 0.00 0.00 63 1014.3
20260901051024 86 146 1.7 5.2 0.00 0.00 0.00 63 1014.2
20260901050523 87 242 0.9 2.6 0.00 0.00 0.00 62 1014.2
20260901045024 87 219 0.9 4.3 0.00 0.00 0.00 60 1014.2
20260901044524 87 111 3.5 4.3 0.00 0.00 0.00 60 1014.1
20260901044024 87 136 1.7 4.3 0.00 0.00 0.00 60 1014.1
20260901043524 88 287 0.9 3.5 0.00 0.00 0.00 59 1014.0
20260901043023 88 113 1.7 5.2 0.00 0.00 0.00 59 1014.1
20260901042524 88 150 1.7 5.2 0.00 0.00 0.00 58 1014.0
20260901042024 88 248 0.0 2.6 0.00 0.00 0.00 58 1014.0
20260901041524 88 179 0.9 2.6 0.00 0.00 0.00 57 1014.0
20260901041023 89 133 2.6 2.6 0.00 0.00 0.00 57 1014.0
20260901040023 89 209 1.7 6.1 0.00 0.00 0.00 56 1014.0
20260901035523 89 125 6.1 6.1 0.00 0.00 0.00 56 1013.8
20260901035023 89 162 4.3 6.1 0.00 0.00 0.00 55 1013.8
20260901034523 90 157 2.6 6.1 0.00 0.00 0.00 55 1013.9
20260901033523 90 151 1.7 7.8 0.00 0.00 0.00 53 1013.8
20260901033022 90 149 3.5 7.8 0.00 0.00 0.00 53 1013.8
20260901032522 90 122 0.9 4.3 0.00 0.00 0.00 52 1013.7
20260901032022 90 135 2.6 6.1 0.00 0.00 0.00 51 1013.7
20260901031522 90 175 1.7 6.1 0.00 0.00 0.00 51 1013.6
20260901030522 91 129 1.7 2.6 0.00 0.00 0.00 49 1013.5
20260901030022 91 116 2.6 7.8 0.00 0.00 0.00 48 1013.4
20260901025522 91 130 6.1 7.8 0.00 0.00 0.00 47 1013.4
20260901025022 91 210 0.9 7.8 0.00 0.00 0.00 46 1013.3
20260901024522 91 90 2.6 7.8 0.00 0.00 0.00 45 1013.2
20260901024021 92 101 2.6 7.8 0.00 0.00 0.00 44 1013.1
20260901023522 92 141 2.6 7.8 0.00 0.00 0.00 43 1013.0
20260901023021 92 100 0.9 7.8 0.00 0.00 0.00 43 1012.9
20260901022522 92 126 0.9 10.4 0.00 0.00 0.00 42 1012.8
20260901022021 92 158 1.7 10.4 0.00 0.00 0.00 41 1012.6
20260901021521 93 184 3.5 5.2 0.00 0.00 0.00 40 1012.7
20260901021021 93 180 0.9 5.2 0.00 0.00 0.00 40 1012.4
20260901020521 93 136 2.6 5.2 0.00 0.00 0.00 40 1012.3
20260901015521 93 126 1.7 2.6 0.00 0.00 0.00 39 1012.2
20260901014521 94 141 1.7 7.0 0.00 0.00 0.00 39 1012.1
20260901013021 94 117 0.9 5.2 0.00 0.00 0.00 39 1012.0
20260901012521 94 118 1.7 5.2 0.00 0.00 0.00 39 1012.0
20260901012021 94 168 0.9 2.6 0.00 0.00 0.00 39 1011.9
20260901011521 95 104 0.9 2.6 0.00 0.00 0.00 39 1011.8
20260901011021 95 90 0.0 3.5 0.00 0.00 0.00 39 1011.8
20260901010520 95 109 0.0 3.5 0.00 0.00 0.00 38 1011.7
20260901010021 96 103 0.0 0.0 0.00 0.00 0.00 38 1011.7
20260901005521 96 109 0.0 0.9 0.00 0.00 0.00 38 1011.6
20260901005020 96 109 0.0 0.9 0.00 0.00 0.00 38 1011.6
20260901004020 96 109 0.0 1.7 0.00 0.00 0.00 38 1011.7
20260901003520 97 109 0.0 3.5 0.00 0.00 0.00 37 1011.6
20260901003020 97 98 0.0 6.1 0.00 0.00 0.00 37 1011.6
20260901002520 97 101 1.7 6.1 0.00 0.00 0.00 37 1011.6
20260901001520 97 106 3.5 5.2 0.00 0.00 0.00 37 1011.6
20260901000520 97 112 3.5 7.0 0.00 0.00 0.00 37 1011.6
20260901000020 97 98 5.2 7.0 0.00 0.00 0.00 37 1011.5
20260831235520 97 157 2.6 7.0 0.00 0.00 0.00 37 1011.5
20260831235020 97 123 0.0 0.9 0.00 0.00 0.00 37 1011.5
20260831234520 97 123 0.9 7.0 0.00 0.00 0.00 37 1011.5
20260831234020 98 90 0.9 7.0 0.00 0.00 0.00 37 1011.5
20260831233020 98 54 0.9 7.0 0.00 0.00 0.00 37 1011.5
20260831232519 99 170 1.7 7.8 0.00 0.00 0.00 37 1011.5
20260831232019 99 320 1.7 7.8 0.00 0.00 0.00 37 1011.5
20260831231020 99 90 5.2 7.8 0.00 0.00 0.00 37 1011.5
20260831230520 99 105 1.7 7.0 0.00 0.00 0.00 38 1011.5
20260831230019 99 115 3.5 5.2 0.00 0.00 0.00 38 1011.4
20260831225521 98 115 3.5 7.0 0.00 0.00 0.00 38 1011.5
20260831224519 98 111 0.9 1.7 0.00 0.00 0.00 38 1011.6
20260831224019 98 119 1.7 6.1 0.00 0.00 0.00 39 1011.6
20260831223019 98 111 0.9 2.6 0.00 0.00 0.00 39 1011.8
20260831222519 98 82 0.9 2.6 0.00 0.00 0.00 39 1011.9
20260831222019 98 142 0.9 3.5 0.00 0.00 0.00 39 1011.9
20260831221518 98 215 0.0 8.7 0.00 0.00 0.00 39 1011.9
20260831221018 98 103 5.2 8.7 0.00 0.00 0.00 39 1011.9
20260831220519 99 116 1.7 7.8 0.00 0.00 0.00 38 1011.8
20260831220018 99 87 7.0 7.8 0.00 0.00 0.00 39 1011.7
20260831215018 99 127 1.7 6.1 0.00 0.00 0.00 39 1011.9
20260831214019 100 94 5.2 7.0 0.00 0.00 0.00 39 1012.2
20260831213518 100 136 7.0 7.0 0.00 0.00 0.00 39 1012.3
20260831213018 100 142 0.9 3.5 0.00 0.00 0.00 39 1012.3
20260831212518 100 296 3.5 3.5 0.00 0.00 0.00 40 1012.3
20260831212018 99 128 0.9 2.6 0.00 0.00 0.00 40 1012.3
20260831211518 99 234 0.9 3.5 0.00 0.00 0.00 40 1012.4
20260831211018 98 307 0.9 8.7 0.00 0.00 0.00 41 1012.5
20260831210018 98 99 2.6 2.6 0.00 0.00 0.00 41 1012.5
20260831205518 98 147 0.9 6.1 0.00 0.00 0.00 41 1012.7
20260831205018 98 179 1.7 7.8 0.00 0.00 0.00 42 1012.9
20260831204518 98 99 7.8 7.8 0.00 0.00 0.00 41 1012.9
20260831204018 98 169 5.2 6.1 0.00 0.00 0.00 41 1013.0
20260831203518 98 218 2.6 6.1 0.00 0.00 0.00 42 1013.3
20260831203018 98 111 1.7 5.2 0.00 0.00 0.00 42 1013.4
20260831202018 97 118 0.9 4.3 0.00 0.00 0.00 45 1013.5
20260831201517 97 188 0.9 7.8 0.00 0.00 0.00 45 1013.6
20260831200517 97 33 0.9 6.1 0.00 0.00 0.00 45 1013.7
20260831200017 97 82 4.3 6.1 0.00 0.00 0.00 45 1013.8
20260831195517 97 185 1.7 4.3 0.00 0.00 0.00 45 1014.0
20260831195017 97 155 3.5 3.5 0.00 0.00 0.00 46 1014.1
20260831194517 97 90 1.7 2.6 0.00 0.00 0.00 46 1014.1
20260831193517 96 113 0.9 4.3 0.00 0.00 0.00 48 1014.2
20260831193017 96 115 3.5 5.2 0.00 0.00 0.00 48 1014.2
20260831192517 96 104 5.2 5.2 0.00 0.00 0.00 48 1014.3
20260831192017 96 190 0.9 3.5 0.00 0.00 0.00 48 1014.3
20260831191516 96 226 3.5 5.2 0.00 0.00 0.00 49 1014.3
20260831191016 96 105 3.5 9.6 0.00 0.00 0.00 49 1014.5
20260831190016 96 165 1.7 7.0 0.00 0.00 0.00 51 1014.6
20260831185517 95 189 2.6 9.6 0.00 0.00 0.00 51 1014.8
20260831185016 95 89 7.8 9.6 0.00 0.00 0.00 51 1014.8
20260831184516 95 130 6.1 6.1 0.00 0.00 0.00 52 1014.9
20260831183516 95 110 3.5 6.1 0.00 0.00 0.00 52 1014.9
20260831183016 94 281 2.6 4.3 0.00 0.00 0.00 53 1014.9
20260831182516 94 130 4.3 5.2 0.00 0.00 0.00 55 1015.0
20260831182016 94 223 0.9 9.6 0.00 0.00 0.00 55 1015.0
20260831181516 93 98 6.1 9.6 0.00 0.00 0.00 55 1015.0
20260831181016 93 97 2.6 7.0 0.00 0.00 0.00 56 1015.0
20260831180516 93 95 3.5 7.0 0.00 0.00 0.00 56 1015.1
20260831180015 93 290 4.3 7.0 0.00 0.00 0.00 57 1015.2
20260831175515 93 296 1.7 7.8 0.00 0.00 0.00 59 1015.2
20260831175016 92 125 3.5 7.8 0.00 0.00 0.00 59 1015.4
20260831174515 92 334 2.6 5.2 0.00 0.00 0.00 60 1015.5
20260831173515 92 103 3.5 7.0 0.00 0.00 0.00 61 1015.7
20260831173015 92 180 1.7 4.3 0.00 0.00 0.00 62 1015.9
20260831172515 92 144 0.0 6.1 0.00 0.00 0.00 61 1015.8
20260831172015 91 159 3.5 6.1 0.00 0.00 0.00 63 1015.8
20260831171515 91 113 0.9 8.7 0.00 0.00 0.00 64 1015.9
20260831171015 90 130 7.0 8.7 0.00 0.00 0.00 64 1015.9
20260831170015 89 150 3.5 4.3 0.00 0.00 0.00 67 1016.0
20260831165515 89 167 2.6 2.6 0.00 0.00 0.00 68 1016.0
20260831164515 88 318 0.9 3.5 0.00 0.00 0.00 68 1016.1
20260831164014 88 287 1.7 3.5 0.00 0.00 0.00 69 1016.1
20260831163514 88 138 0.0 1.7 0.00 0.00 0.00 69 1016.0
20260831162514 88 148 2.6 6.1 0.00 0.00 0.00 70 1016.1
20260831162022 88 313 0.9 2.6 0.00 0.00 0.00 70 1016.1
20260831161514 88 189 0.0 2.6 0.00 0.00 0.00 71 1016.1
20260831161014 88 166 0.9 3.5 0.00 0.00 0.00 70 1016.1
20260831160015 88 142 1.7 5.2 0.00 0.00 0.00 71 1016.0
20260831155514 88 135 1.7 6.1 0.00 0.00 0.00 71 1016.2
20260831155014 88 174 2.6 7.8 0.00 0.00 0.00 71 1016.2
20260831154514 88 190 1.7 7.8 0.00 0.00 0.00 71 1016.0
20260831154014 87 281 1.7 8.7 0.00 0.00 0.00 72 1015.9
20260831153514 87 93 6.1 8.7 0.00 0.00 0.00 73 1015.9
20260831152514 87 181 2.6 5.2 0.00 0.00 0.00 74 1015.9
20260831152014 86 123 0.9 4.3 0.00 0.00 0.00 74 1015.9
20260831150514 86 115 6.1 8.7 0.00 0.00 0.00 75 1015.9
20260831150014 85 111 5.2 6.1 0.00 0.00 0.00 77 1015.9
20260831145514 84 238 3.5 7.0 0.00 0.00 0.00 77 1015.8
20260831145014 84 130 2.6 7.0 0.00 0.00 0.00 78 1015.8
20260831144513 84 140 2.6 4.3 0.00 0.00 0.00 78 1015.7
20260831143517 83 123 7.0 7.0 0.00 0.00 0.00 79 1015.7
20260831142513 83 140 1.7 3.5 0.00 0.00 0.00 79 1015.7
20260831142013 83 142 0.0 3.5 0.00 0.00 0.00 79 1015.7
20260831141513 83 144 0.0 3.5 0.00 0.00 0.00 80 1015.7
20260831141014 83 153 0.0 6.1 0.00 0.00 0.00 80 1015.6
20260831140513 83 142 0.9 6.1 0.00 0.00 0.00 80 1015.6
20260831140013 83 248 0.9 3.5 0.00 0.00 0.00 80 1015.6
20260831135513 82 126 3.5 3.5 0.00 0.00 0.00 80 1015.6
20260831134513 82 140 0.0 1.7 0.00 0.00 0.00 81 1015.4
20260831134013 82 175 1.7 1.7 0.00 0.00 0.00 81 1015.3
20260831133513 81 107 0.0 0.9 0.00 0.00 0.00 81 1015.2
20260831133013 81 119 0.0 0.0 0.00 0.00 0.00 81 1015.2
20260831132513 81 116 0.0 0.0 0.00 0.00 0.00 81 1015.2
20260831132013 80 294 0.0 0.9 0.00 0.00 0.00 81 1015.2
20260831131513 80 150 0.0 1.7 0.00 0.00 0.00 81 1015.2
20260831131013 80 224 0.0 2.6 0.00 0.00 0.00 81 1015.1
20260831130013 80 144 1.7 3.5 0.00 0.00 0.00 81 1015.1
20260831125013 79 140 0.0 0.9 0.00 0.00 0.00 82 1014.9
20260831124512 79 140 0.0 1.7 0.00 0.00 0.00 82 1014.9
20260831124013 79 149 0.9 1.7 0.00 0.00 0.00 82 1014.8